Theta_e
330 340 349 351 351 351 351 352 352 352 352 349 349 349 349 349 349 349 350 351 350 347 346 346 344 342 340 338 337 337 340 344 347 352 350 349 348 349 350 351 349 348 352
334 340 348 351 352 353 353 353 352 352 351 350 350 349 349 348 348 348 349 348 347 345 344 342 341 339 336 334 334 335 338 340 341 346 347 346 346 346 347 349 349 348 351
332 339 347 349 351 353 353 353 352 352 350 349 349 349 349 348 347 347 346 345 344 342 340 338 337 335 331 331 332 334 336 337 337 339 343 341 340 343 344 345 348 348 349
331 339 343 347 350 352 353 352 351 350 351 350 350 350 347 344 340 340 341 342 342 340 337 336 332 329 328 328 330 332 332 333 334 337 335 341 340 344 341 341 342 343 346
328 338 341 345 350 351 351 351 350 349 349 351 351 348 345 341 338 336 336 338 340 337 333 331 327 326 325 325 326 328 329 330 333 332 337 339 339 342 342 339 337 338 340
327 333 340 346 350 350 350 350 349 349 349 350 349 345 345 340 337 335 335 336 336 333 330 327 325 323 322 321 323 324 325 327 331 326 333 336 334 341 339 336 334 334 337
326 329 340 345 348 349 349 349 349 349 349 349 348 344 343 342 336 334 334 334 334 330 327 325 323 322 320 320 320 320 320 323 323 325 329 330 330 337 335 334 333 333 333
327 331 339 339 342 346 348 348 348 349 349 348 345 344 342 340 336 333 333 333 330 327 326 324 322 320 319 317 317 316 317 320 321 322 324 324 332 331 331 331 331 330 331
328 330 335 338 339 338 342 343 345 347 347 346 343 342 340 338 335 333 333 330 328 326 326 323 321 319 317 315 314 312 313 316 313 316 323 321 330 329 329 328 328 328 329
327 330 332 336 338 340 340 337 339 342 342 341 339 336 333 333 332 330 328 329 326 325 325 323 320 318 315 312 309 307 309 312 307 310 314 316 326 325 325 326 326 327 328
326 328 331 332 335 337 338 337 334 336 335 334 332 329 326 326 326 323 323 326 327 327 324 322 319 316 312 308 304 302 306 299 300 303 310 318 320 321 323 325 325 326 325
320 325 329 330 331 334 338 334 333 332 329 329 329 325 325 325 324 322 319 324 326 325 324 321 318 314 310 299 297 301 298 297 298 300 306 315 317 320 322 324 324 324 325
319 323 326 328 330 330 331 332 334 332 328 327 327 325 324 324 320 316 314 315 314 315 312 313 309 303 299 297 296 296 296 296 295 298 305 310 315 317 323 323 322 323 325
314 319 323 325 328 328 329 328 330 332 330 328 327 325 323 321 316 313 313 313 312 309 308 306 301 299 297 298 297 296 296 295 294 296 300 308 312 319 322 322 322 324 323
309 314 320 323 323 326 327 327 327 326 326 326 325 324 323 319 314 312 311 312 312 308 307 303 299 298 297 296 296 296 295 294 294 295 299 308 312 319 322 322 324 325 320
309 310 316 321 322 324 324 325 324 324 324 324 323 322 323 318 314 311 309 310 310 307 305 300 297 296 296 296 295 295 294 294 295 296 301 303 313 317 321 322 326 322 317
308 310 312 316 320 321 322 323 323 323 323 321 322 323 322 318 314 310 308 308 308 306 303 298 297 296 295 296 294 294 294 294 294 296 299 304 307 314 318 323 322 319 314
304 308 310 313 316 318 319 321 322 321 321 320 320 320 319 318 314 309 307 306 306 303 299 296 294 294 293 293 292 292 292 293 294 295 297 302 307 305 307 321 318 314 309
304 305 307 311 312 314 316 318 319 319 318 318 318 318 317 316 314 309 306 305 305 300 297 295 293 293 292 291 292 291 291 291 293 295 295 300 303 300 298 308 308 306 308
304 304 305 308 310 311 312 313 314 315 316 316 315 315 315 313 312 308 304 303 302 298 295 294 293 293 292 291 292 291 290 292 293 292 294 299 301 300 296 294 295 297 302
302 302 303 302 305 306 307 307 308 309 311 311 312 313 313 311 310 307 303 301 300 297 295 295 292 292 291 291 288 288 288 290 291 292 293 295 298 297 296 293 292 292 295
299 300 300 301 302 303 304 306 307 307 308 309 311 311 311 310 308 306 303 300 298 294 294 293 292 290 290 291 287 286 283 285 287 290 290 293 294 294 292 292 291 291 293
296 297 298 298 299 301 301 302 302 303 303 303 302 304 308 309 307 305 302 300 297 295 295 294 293 292 289 289 291 289 285 284 283 286 287 289 291 291 290 290 290 291 291
294 295 295 296 297 298 299 299 297 298 297 300 300 302 304 306 306 305 303 300 297 296 293 293 294 293 290 290 288 292 289 288 284 281 285 286 288 290 289 288 288 289 290
293 293 293 293 294 295 296 295 295 295 297 298 298 298 299 301 303 303 302 300 298 296 294 292 292 292 293 290 290 287 287 286 287 283 280 282 286 287 289 289 288 287 289
292 291 291 291 291 292 292 293 293 292 292 293 294 294 296 298 299 300 300 299 297 297 294 293 292 292 293 293 291 288 287 287 285 286 283 281 282 283 286 288 287 287 287
Wind_Speed
6 13 16 15 15 13 11 10 11 12 11 11 10 10 10 9 9 8 8 10 10 11 11 10 10 9 9 9 8 9 9 9 9 12 13 14 13 12 16 15 13 9 12
12 13 15 16 14 13 13 12 12 12 12 12 11 10 12 10 8 8 9 9 11 10 8 8 8 8 8 8 7 8 9 8 7 7 11 13 11 13 14 13 12 11 14
11 13 12 14 15 13 12 13 14 14 13 12 11 11 12 14 8 9 9 8 9 8 7 7 7 7 6 6 6 7 8 7 6 4 4 4 9 11 13 12 13 15 14
10 14 12 11 14 14 13 11 12 15 12 13 14 14 14 12 6 4 5 6 8 7 5 6 6 6 6 6 6 6 6 6 6 9 4 6 8 12 10 11 12 12 12
8 13 12 13 14 14 14 13 11 12 11 11 14 15 13 9 6 5 4 2 7 5 5 5 6 5 6 5 6 6 6 6 8 9 8 7 6 12 13 12 11 13 12
8 9 13 16 14 14 14 14 13 13 10 9 10 10 11 9 7 5 4 6 6 5 5 6 5 5 5 5 6 5 5 7 10 4 7 10 6 12 12 9 10 10 10
8 7 13 16 12 13 12 14 13 12 12 13 13 12 10 11 7 5 5 5 6 5 5 6 6 6 6 6 5 4 5 8 6 6 8 8 6 11 7 8 8 9 9
7 8 10 11 12 10 11 13 12 12 13 13 14 13 13 11 10 7 7 6 6 5 6 6 6 6 6 6 5 4 6 7 4 5 7 5 8 5 5 6 7 8 8
6 7 8 9 9 9 10 11 11 12 13 13 14 13 13 12 9 8 7 8 7 7 7 6 6 6 6 6 5 5 4 6 4 3 5 4 5 5 4 5 6 7 8
5 8 6 8 9 8 7 10 11 11 10 12 11 10 11 11 9 8 6 6 7 8 8 8 7 6 6 5 4 3 4 8 4 3 4 4 3 4 4 6 6 7 9
4 7 7 7 8 9 8 8 9 11 11 10 9 11 10 5 6 7 7 9 9 10 9 8 7 7 6 4 2 2 5 2 3 4 3 7 2 3 5 6 6 7 8
8 7 7 7 7 8 8 8 7 6 5 5 6 7 5 6 6 7 8 10 10 10 11 11 10 9 8 4 2 2 0 2 3 4 3 7 2 3 4 6 6 7 8
10 7 8 8 8 7 5 5 5 4 4 4 7 7 5 4 3 4 3 3 3 7 3 5 5 3 5 3 4 2 3 2 2 3 3 3 4 2 5 5 5 6 9
8 11 10 9 7 7 5 4 5 5 5 4 5 7 5 3 4 4 4 5 5 4 5 5 3 5 3 1 3 3 2 2 2 2 3 2 4 4 6 6 6 8 10
9 8 10 10 8 6 6 3 4 4 4 5 5 6 4 5 4 4 4 4 4 5 4 5 5 4 4 4 3 4 3 3 3 1 2 4 3 6 8 8 9 11 8
7 7 7 10 11 8 7 8 5 4 5 5 5 5 6 5 5 5 5 5 5 5 4 5 4 4 4 4 5 5 5 5 4 2 3 3 1 3 8 9 12 11 8
7 8 6 6 9 9 8 6 5 5 5 5 5 8 8 7 6 6 5 4 4 5 7 5 4 3 3 3 4 3 2 3 4 4 3 4 4 7 7 9 11 10 7
2 7 7 5 6 7 5 5 4 4 5 5 5 5 8 8 8 6 5 4 5 5 5 4 4 3 4 4 3 3 2 2 2 3 3 3 4 4 6 11 14 11 7
10 10 2 6 5 5 4 2 4 4 3 3 3 4 6 8 8 6 6 6 7 5 5 5 3 4 4 4 4 4 3 2 2 1 3 3 3 5 4 13 13 9 8
16 12 10 7 5 5 3 2 2 3 3 3 3 3 6 5 7 5 4 5 5 5 6 5 6 5 4 5 4 4 3 3 4 4 4 3 2 5 6 5 4 4 6
17 16 16 12 8 5 3 3 3 2 2 1 1 3 4 5 7 6 4 5 5 6 7 8 5 8 5 5 5 2 1 1 3 4 4 3 3 4 6 6 4 3 3
17 15 18 16 15 9 4 2 2 1 2 1 1 3 4 4 6 6 6 6 7 5 7 7 7 3 3 7 5 4 2 3 4 5 4 5 6 4 5 6 6 6 5
16 15 15 14 14 11 10 5 4 4 4 3 3 3 3 5 4 6 7 6 6 6 8 9 10 10 7 6 8 7 4 6 3 3 7 5 6 5 5 6 6 6 6
12 11 12 13 14 13 13 8 7 4 3 3 1 2 4 5 6 5 7 7 6 5 6 7 8 9 6 10 2 8 1 5 5 1 2 4 5 7 7 5 6 7 6
10 10 10 11 12 11 11 10 7 7 4 4 5 8 6 4 6 7 6 6 6 5 6 7 7 9 10 7 9 3 2 2 3 5 4 5 3 5 7 7 7 6 7
9 8 7 8 9 9 9 8 7 7 6 5 6 5 5 5 4 6 6 5 6 6 6 7 8 10 12 12 9 7 6 8 5 5 3 3 5 4 4 6 7 8 7
Wind_Direction
137 142 151 156 157 156 151 140 134 134 137 136 136 124 104 95 92 95 115 105 97 87 81 77 76 66 58 54 44 46 50 49 54 81 80 73 68 54 52 49 59 59 68
127 145 155 158 159 162 159 152 142 141 145 143 141 133 123 115 104 103 103 102 98 89 87 82 74 69 59 51 44 41 48 44 32 59 102 95 68 59 52 53 60 64 65
132 145 161 161 161 160 159 161 161 158 154 156 159 152 143 121 120 109 98 100 107 95 84 82 79 69 58 51 46 43 45 31 6 328 241 111 100 66 62 49 53 58 64
141 143 167 166 164 163 160 163 182 159 162 169 172 159 136 116 106 85 91 84 97 102 96 93 87 72 60 54 55 46 35 21 341 315 286 133 96 91 67 64 59 52 55
147 146 167 166 170 170 165 166 163 154 167 177 167 161 130 127 140 179 176 165 122 107 122 108 98 88 69 63 64 53 28 4 337 322 69 53 76 78 67 56 49 43 36
152 150 151 166 175 175 173 171 168 163 173 178 160 147 145 149 153 184 179 190 164 149 135 116 101 91 81 71 69 47 20 360 325 337 86 74 59 71 70 59 56 53 40
151 136 153 162 176 183 177 175 174 172 182 177 161 152 152 140 152 186 190 179 169 158 141 122 112 99 89 83 72 47 28 355 28 31 75 71 63 64 60 66 62 59 60
160 145 149 165 169 183 190 183 182 183 186 181 158 158 153 142 161 187 192 181 173 166 150 134 122 112 98 89 80 55 22 10 23 40 78 64 68 92 81 76 74 70 66
173 155 145 162 179 180 185 184 184 185 184 178 164 163 147 148 178 191 192 184 182 175 153 142 135 125 116 101 85 61 34 9 72 25 84 67 54 94 84 85 82 86 84
197 161 179 161 176 185 188 189 184 187 187 172 167 161 143 144 164 179 177 183 189 181 160 155 149 140 123 109 93 63 12 4 64 44 71 50 93 100 103 101 98 91 87
203 183 180 186 174 183 187 184 188 187 179 171 164 153 142 137 155 169 175 184 194 173 168 164 160 147 128 110 91 342 359 26 34 45 70 35 92 129 117 114 115 103 98
205 207 183 195 190 181 188 163 173 178 172 166 161 156 158 157 174 179 178 181 179 161 170 172 166 155 164 162 189 242 198 71 57 61 73 35 328 117 133 123 123 119 115
199 190 197 192 192 184 191 156 171 169 172 180 179 158 175 161 186 164 132 153 140 149 151 164 140 171 219 176 175 146 110 106 111 78 112 62 354 166 139 140 128 131 118
204 193 185 193 189 190 175 186 160 175 175 181 184 162 158 171 159 156 142 165 159 166 170 159 166 209 182 83 118 105 109 98 102 105 127 91 352 265 154 146 152 156 109
223 204 185 174 178 185 184 181 175 172 174 175 161 164 164 165 160 152 169 169 173 163 173 170 172 177 169 166 146 142 127 78 68 57 132 148 313 290 171 167 160 119 108
220 234 186 172 180 171 183 184 174 178 182 169 156 170 194 162 165 170 184 177 177 163 174 159 170 173 186 168 175 163 159 152 153 165 157 173 314 351 195 182 148 123 131
198 199 220 189 167 176 180 177 181 177 180 167 164 179 181 166 179 175 181 187 177 163 156 151 174 164 156 166 170 163 162 160 163 167 180 170 162 58 26 173 139 136 138
89 174 186 158 163 170 175 176 175 188 179 175 173 177 175 171 176 172 169 185 179 159 152 155 164 167 174 173 164 188 168 162 189 193 212 185 170 99 45 138 137 132 147
25 27 64 137 147 144 169 170 178 186 195 192 181 175 178 174 183 171 176 182 173 163 158 161 167 160 171 172 171 167 165 167 208 248 255 254 150 125 108 107 111 133 150
27 22 29 55 87 121 117 154 153 167 198 189 191 176 177 177 184 182 181 186 173 160 169 172 172 190 169 170 152 143 171 183 180 198 211 248 189 140 136 129 131 131 145
35 34 28 29 31 54 51 54 16 331 326 5 212 230 208 189 180 185 184 186 177 181 190 189 160 176 187 159 105 58 335 232 215 211 212 213 197 150 152 153 163 156 180
31 31 33 27 24 19 36 32 67 45 339 278 232 223 229 224 188 183 189 197 186 168 186 187 180 156 190 174 145 124 199 311 257 222 204 200 198 183 174 173 176 166 180
39 32 39 32 26 18 10 14 15 18 20 10 343 321 240 233 216 196 198 198 200 183 201 196 196 179 187 206 194 148 150 219 142 213 212 199 187 184 190 184 184 180 183
32 29 45 40 31 27 20 20 27 16 3 337 322 304 263 221 220 224 209 205 206 195 200 208 202 201 169 196 242 247 206 145 167 186 283 219 198 194 189 195 178 182 188
35 32 26 30 32 26 31 28 22 13 2 348 347 349 337 294 221 219 220 209 213 215 218 209 212 209 212 197 209 157 173 229 196 137 179 218 233 205 194 186 182 185 187
25 26 30 33 23 15 20 25 30 30 5 3 359 354 341 328 290 240 223 223 213 220 225 219 219 219 217 220 209 214 186 186 191 178 141 168 196 241 186 185 185 188 186